Regional Weather Roundup
Issued by NWS

Home | Current Version | Previous Version | Graphics & Text | Print | Product List | Glossary On
Versions: 1 2 3 4 5 6 7 8 9 10 11 12 13 14 15 16 17 18 19 20 21 22 23 24 25 26 27 28 29 30 31 32 33 34 35 36 37 38 39 40 41 42 43 44 45 46 47 48 49 50
000
ASUS43 KLOT 061500
RWRIL

ILLINOIS REGIONAL WEATHER ROUNDUP
NATIONAL WEATHER SERVICE CHICAGO/ROMEOVILLE IL
1000 AM CDT MON JUL 06 2015

NOTE: "FAIR" INDICATES FEW OR NO CLOUDS BELOW 12,000 FEET WITH NO
SIGNIFICANT WEATHER AND/OR OBSTRUCTIONS TO VISIBILITY.

* THESE STATIONS ARE NOT UNDER NWS QUALITY CONTROL. THEY ALSO MAY NOT
  REPORT WEATHER SUCH AS PRECIPITATION OR FOG.

ILZ001-002-007-009-015-016-024-061600-
NORTHWEST ILLINOIS

CITY           SKY/WX    TMP DP  RH WIND       PRES   REMARKS
MOLINE         CLOUDY    77  70  79 SW9       29.92S
STERLING*      PTSUNNY   79  72  78 S9        29.93F HX  82
$$

ILZ003-004-008-010-011-017-018-061600-
NORTH CENTRAL ILLINOIS

CITY           SKY/WX    TMP DP  RH WIND       PRES   REMARKS
ROCKFORD       CLOUDY    79  70  74 S12       29.94F HX  82
$$

ILZ005-006-012>014-019>023-061600-
NORTHEAST ILLINOIS

CITY           SKY/WX    TMP DP  RH WIND       PRES   REMARKS
CHICAGO-OHARE  PTSUNNY   78  69  73 S9        29.97F HAZE    HX  80
CHICAGO-MIDWAY PTSUNNY   80  70  71 S12G22    29.98S HX  83
AURORA         PTSUNNY   77  68  73 S12       29.98S HAZE
WAUKEGAN       PTSUNNY   78  68  71 S13       29.96S HX  80
DUPAGE AIRPORT PTSUNNY   77  69  76 S13       29.96F
WHEELING       PTSUNNY   79  68  69 S13       29.98S HX  81
NORTHERLY ISL    N/A     78  66  66 S12         N/A  HX  80
$$

LMZ740>746-061600-
SOUTHERN LAKE MICHIGAN

STATION/POSITION SKY/WX   TEMP    WIND        PRES    VSBY  WAVE
                          AIR SEA DIR/SP/G                  HT/PER
                          (F)     (DEG/KT/KT) (MB)    (MI)  (FT/S)
HARRISON CRIB              70     170/ 12/ 13   N/A
BURNHAM HARBOR             78     180/ 10/ 14   N/A
CALUMET HARBOR             75     180/  7/  9   N/A
BURNS HARBOR               75     180/  8/ 14 1016.6F
MICHIGAN CITY              73     160/ 11/ 13   N/A
MICHIGAN CITY 6N           70 66  180/  8/ 10   N/A           1
ST. JOSEPH                 68 65  210/  8/  8   N/A           1
$$

ILZ025>027-034>036-040-047-049-050-058-095>099-061600-
WEST-CENTRAL ILLINOIS

CITY           SKY/WX    TMP DP  RH WIND       PRES   REMARKS
QUINCY         CLOUDY    79  72  79 S10       29.96F HX  82
$$

ILZ028>032-037-038-041>044-048-051>054-059>061-061600-
CENTRAL ILLINOIS

CITY           SKY/WX    TMP DP  RH WIND       PRES   REMARKS
DECATUR        MOSUNNY   80  71  74 S15G21    30.02S HX  84
PEORIA         PTSUNNY   80  72  76 S12       29.98S HAZE    HX  84
SPRINGFIELD    MOSUNNY   81  73  76 S12       30.00S HX  86
TAYLORVILLE    NOT AVBL
$$

ILZ033-039-045-046-055>057-062-063-061600-
EAST-CENTRAL ILLINOIS

CITY           SKY/WX    TMP DP  RH WIND       PRES   REMARKS
CHAMPAIGN      MOSUNNY   79  69  71 S14G21    30.04R HAZE    HX  81
MATTOON        SUNNY     78  72  81 S9        30.04S HX  80
$$

ILZ079-100>102-061600-
SOUTHWEST ILLINOIS

CITY           SKY/WX    TMP DP  RH WIND       PRES   REMARKS
BELLEVILLE     PTSUNNY   80  77  90 S12       30.01F HX  85
CAHOKIA*       PTSUNNY   82  73  74 S6        30.01F HX  87
$$

ILZ064>066-069>071-074>076-080>082-084>086-088>090-092>094-061600-
SOUTH-CENTRAL ILLINOIS

CITY           SKY/WX    TMP DP  RH WIND       PRES   REMARKS
CARBONDALE     CLOUDY    77  71  82 SW14      30.07R
MARION         CLOUDY    79  73  83 SW14      30.07S HX  82
MT. VERNON     CLOUDY    77  70  78 S9        30.07S
$$

ILZ067-068-072-073-078-083-087-091-061600-
SOUTHEAST ILLINOIS

CITY           SKY/WX    TMP DP  RH WIND       PRES   REMARKS
LAWRENCEVILLE  SUNNY     79  72  79 S6        30.06F HAZE    HX  82
$$

ABBREVIATIONS USED IN REMARKS
   TC - TEMPERATURE IN CELSIUS
  WCI - WIND CHILL INDEX
   HX - HEAT INDEX
  VSB - VISIBILITY
$$



USA.gov is the U.S. government's official web portal to all federal, state and local government web resources and services.